Regional Weather Roundup
Issued by NWS

Home | Current Version | Previous Version | Graphics & Text | Print | Product List | Glossary On
Versions: 1 2 3 4 5 6 7 8 9 10 11 12 13 14 15 16 17 18 19 20 21 22 23 24 25 26 27 28 29 30 31 32 33 34 35 36 37 38 39 40 41 42 43 44 45 46 47 48 49 50
000
ASUS43 KBIS 160410
RWRND

NORTH DAKOTA REGIONAL WEATHER ROUNDUP
NATIONAL WEATHER SERVICE BISMARCK ND
1100 PM CDT TUE AUG 15 2017

NOTE: "FAIR" INDICATES FEW OR NO CLOUDS BELOW 12,000 FEET WITH NO
SIGNIFICANT WEATHER AND/OR OBSTRUCTIONS TO VISIBILITY.


NDZ001>003-009>011-017-160500-
NORTHWEST NORTH DAKOTA

CITY           SKY/WX    TMP DP  RH WIND       PRES   REMARKS
WILLISTON      CLEAR     66  60  81 CALM      29.89R
MINOT          MOCLDY    60  59  96 E5        29.87F FOG
MINOT AFB      PTCLDY    57  57 100 SE3       29.86S FOG
$$

NDZ018>021-031>035-040>046-160500-
SOUTHWEST NORTH DAKOTA

CITY           SKY/WX    TMP DP  RH WIND       PRES   REMARKS
BISMARCK       CLOUDY    64  63  96 NW7       29.85R
DICKINSON      PTCLDY    61  61 100 N3        29.91R
GARRISON         N/A     60  60 100 N5        29.88R
HETTINGER ARPT CLOUDY    62  59  90 N8        29.91S
$$

NDZ004>008-012>016-024-026-027-054-160500-
NORTHEAST NORTH DAKOTA

CITY           SKY/WX    TMP DP  RH WIND       PRES   REMARKS
GRAND FORKS    CLOUDY    68  61  78 CALM      29.87S
GRND FRKS AFB  CLOUDY    66  61  85 CALM      29.88S
DEVILS LAKE    LGT RAIN  63  61  93 E12       29.89S
$$

NDZ022-023-025-028>030-036>039-047>053-160500-
SOUTHEAST NORTH DAKOTA

CITY           SKY/WX    TMP DP  RH WIND       PRES   REMARKS
FARGO          CLOUDY    68  61  78 SE7       29.87R
JAMESTOWN      CLOUDY    65  62  90 SE13      29.84S
$$





USA.gov is the U.S. government's official web portal to all federal, state and local government web resources and services.